Dewpoint
60 60 59 59 58 59 58 58 58 59 60 60 60 60 61 61 60 56 36 48 58 74 73 64 65 67 67 65 64 63 57 48 47 50 50 53 52 54 56 56 57 57 62 63 65
60 59 59 59 58 58 58 58 58 59 59 59 60 60 61 61 53 37 52 72 75 75 66 67 66 64 61 65 64 62 57 49 50 52 52 53 52 54 55 54 56 60 63 64 64
60 59 59 58 58 58 58 58 58 58 58 59 59 60 60 60 48 32 69 74 75 73 66 68 72 64 62 62 61 61 55 48 52 53 53 53 52 54 53 54 56 60 62 63 63
59 59 59 58 57 57 57 57 57 57 58 59 59 60 61 54 44 61 75 76 75 63 62 64 65 61 57 56 56 54 53 50 53 52 51 52 54 53 54 54 56 61 62 63 63
59 59 58 57 57 57 57 57 57 57 58 58 59 60 53 40 27 69 76 75 67 60 61 56 60 63 60 57 56 54 53 48 49 49 50 52 54 53 53 55 56 56 61 62 63
59 59 57 57 57 57 57 57 57 58 58 58 59 60 47 23 54 68 67 68 66 62 61 56 57 62 62 57 58 59 56 47 51 51 53 53 53 53 53 54 54 54 55 57 61
59 58 57 56 56 56 57 57 57 58 58 58 59 56 44 33 64 66 63 63 65 67 63 59 60 61 62 57 61 59 54 48 49 50 52 55 53 52 53 52 52 53 53 54 56
57 57 57 56 57 56 56 56 57 58 58 59 60 53 33 41 64 63 63 62 63 66 65 63 62 60 61 59 59 57 55 49 50 49 50 52 52 54 54 52 52 53 53 54 57
57 56 56 56 56 55 55 56 57 58 59 60 52 46 31 63 61 62 61 59 60 61 60 63 61 60 57 55 55 56 53 52 51 52 50 52 51 54 55 54 54 54 55 54 59
56 55 55 55 55 55 55 56 56 56 57 55 48 38 38 53 58 62 62 61 59 59 56 56 60 57 57 53 48 51 54 52 51 55 52 50 50 52 53 54 54 53 58 59 59
55 55 55 55 55 54 53 42 36 33 40 25 32 38 36 39 48 57 60 59 58 52 49 47 53 52 52 51 48 51 52 52 54 56 55 53 50 50 51 51 52 52 57 59 60
55 55 55 55 54 54 51 31 33 28 17 30 28 34 33 20 38 48 51 49 50 48 46 43 41 52 54 52 50 49 52 52 57 57 56 54 49 53 54 50 51 51 54 58 59
55 55 55 54 54 51 44 35 35 25 20 14 27 21 19 26 39 46 49 49 49 48 48 43 42 44 54 53 48 49 51 54 55 59 59 57 53 52 53 53 51 51 54 56 58
55 54 54 53 47 47 41 34 29 22 14 12 12 15 14 20 18 31 45 50 50 48 48 46 45 44 52 51 49 51 52 54 56 53 49 55 46 52 52 52 52 51 53 55 56
55 55 54 54 47 39 36 37 28 17 12 19 13 13 18 18 18 17 28 49 48 46 44 42 41 45 49 49 51 50 50 55 53 53 51 52 47 48 52 51 50 52 51 55 56
55 55 54 52 50 49 47 41 19 13 11 14 12 8 10 13 16 17 14 43 44 42 34 35 35 32 36 37 47 38 50 52 53 51 46 48 46 44 48 49 50 53 51 56 57
54 54 53 51 42 44 40 24 12 10 12 10 7 8 9 13 14 15 17 16 16 22 19 24 24 25 32 32 32 35 26 23 25 41 40 47 47 46 48 51 52 55 51 54 57
53 53 53 51 48 45 31 18 21 14 12 10 8 8 9 10 12 13 17 17 19 21 19 16 15 19 28 31 30 32 29 23 21 25 29 47 44 46 52 52 55 59 62 59 61
52 52 48 47 49 43 27 18 14 17 18 11 8 7 9 10 8 10 13 16 15 18 16 13 13 15 18 18 32 32 32 31 28 34 26 43 49 53 56 57 56 57 63 64 65
50 50 44 46 46 33 26 28 22 21 19 14 14 14 12 13 14 14 10 13 12 14 15 13 10 12 13 23 29 26 29 29 27 24 22 31 47 47 52 54 59 60 61 61 63
51 45 43 38 34 27 21 23 22 21 17 15 17 13 15 14 16 13 16 16 15 11 13 12 11 6 13 14 16 18 20 28 25 26 23 28 44 57 58 59 57 58 59 59 59
51 45 43 31 26 28 20 20 27 15 16 14 16 16 15 14 16 14 16 16 17 19 15 18 8 5 7 12 17 17 16 21 21 17 25 29 48 60 59 59 58 59 59 58 57
48 46 42 26 20 23 25 23 23 15 15 15 16 19 21 18 16 21 19 17 16 16 16 19 8 6 6 7 16 17 16 22 19 21 17 24 50 59 58 58 59 58 59 58 57
50 45 44 31 27 26 22 26 26 24 19 21 22 20 20 18 19 18 19 19 18 18 53 30 13 8 6 8 19 22 22 21 19 17 24 46 53 57 55 56 57 57 57 57 56
52 46 47 43 41 41 36 28 26 24 30 30 29 29 29 35 27 25 25 23 22 41 25 14 10 24 26 24 30 31 31 26 32 32 23 52 52 54 56 55 55 56 56 54 55
49 48 49 46 44 38 34 29 29 30 30 32 30 30 29 28 28 26 26 23 25 30 30 30 18 25 16 29 31 32 34 34 32 48 52 53 53 57 56 56 55 55 55 54 53
54 53 49 46 44 46 44 45 34 33 33 30 30 30 29 28 29 27 25 28 33 31 30 32 32 29 25 33 30 32 37 35 38 46 49 46 51 55 54 54 55 55 54 53 52
Lifted_Index
12 13 13 13 13 14 14 14 14 13 12 12 11 11 11 10 6 2 -0 -0 -0 -1 -3 -3 -3 -3 -3 -4 -3 -3 -2 -0 0 -0 -1 -0 -0 -0 -0 -0 -0 -1 -1 -2 -2
13 13 13 13 14 14 14 14 14 13 13 12 12 11 11 9 5 2 1 0 -1 -2 -3 -4 -4 -3 -3 -3 -3 -3 -2 -0 0 -0 -1 -0 -1 -1 -1 -1 -1 -1 -2 -2 -2
13 13 13 14 14 14 14 14 14 14 14 13 12 11 10 7 3 1 1 -0 -1 -2 -3 -4 -4 -2 -2 -2 -3 -3 -2 -1 -0 -1 -1 -0 -1 -1 -1 -1 -1 -1 -2 -2 -2
13 13 14 14 14 15 15 15 15 15 14 13 12 11 10 6 2 0 -1 -2 -2 -2 -3 -3 -3 -2 -1 -2 -2 -3 -2 -1 -1 -1 -0 -0 -1 -1 -1 -0 -0 -1 -1 -2 -2
13 13 14 14 14 15 15 15 15 15 15 14 13 11 8 4 1 -1 -2 -3 -3 -2 -2 -2 -2 -2 -2 -2 -2 -2 -2 -1 -1 -0 -0 -1 -1 -1 -1 0 0 -0 -1 -1 -2
14 14 14 14 14 15 15 16 16 15 15 14 13 10 6 3 1 -1 -1 -2 -3 -3 -2 -1 -1 -2 -2 -2 -2 -2 -2 -1 -1 -1 -1 -1 -1 -1 -1 -0 0 0 0 -0 -1
14 14 14 14 14 15 15 16 16 16 15 14 12 9 5 2 0 -1 -1 -2 -3 -4 -3 -2 -2 -2 -2 -2 -2 -2 -2 -1 -1 -1 -1 -1 -1 -1 -1 -1 0 0 0 0 1
14 14 14 14 14 14 15 16 16 15 15 14 12 9 5 2 0 -1 -1 -2 -3 -4 -4 -3 -2 -2 -2 -1 -1 -2 -1 -1 -1 -1 -1 -1 -1 -1 -1 -1 -0 -0 -0 0 1
15 15 14 14 14 14 15 15 15 15 14 13 11 8 5 2 0 -1 -1 -2 -3 -3 -3 -3 -2 -2 -1 -1 -1 -1 -1 -1 -1 -1 -1 -1 -1 -1 -1 -1 -0 -0 -1 -1 -0
15 15 14 14 14 15 15 14 14 14 13 12 10 8 5 3 1 -0 -1 -2 -3 -2 -2 -2 -2 -2 -1 -1 -1 -1 -1 -1 -2 -1 -1 -1 -1 -1 -1 -0 0 0 -0 -1 -1
15 15 14 14 14 14 14 13 12 12 12 11 10 8 7 6 3 1 -1 -2 -3 -2 -1 -1 -1 -1 -1 -1 -1 -1 -1 -2 -2 -2 -1 -1 -1 -1 -0 0 1 1 0 -0 -1
15 14 14 14 14 14 13 12 12 11 11 10 10 9 8 7 5 2 0 -2 -2 -2 -1 -1 -0 -1 -1 -2 -2 -2 -2 -2 -3 -2 -1 -1 -0 -0 0 1 1 1 1 0 -0
14 14 14 14 14 13 12 12 12 11 10 9 9 9 9 8 6 3 1 -0 -1 -2 -1 -1 -1 -1 -2 -2 -2 -2 -2 -2 -3 -2 -2 -1 0 0 0 1 1 1 1 0 -0
14 14 14 13 13 12 12 12 12 10 8 7 8 8 8 8 7 5 3 1 -0 -1 -1 -1 -1 -1 -2 -2 -2 -2 -2 -3 -3 -2 -1 -0 0 0 0 1 1 0 0 -0 -0
14 13 13 13 12 11 11 11 11 9 5 6 7 7 8 8 7 7 6 3 1 0 0 -0 -0 -0 -1 -2 -2 -2 -2 -3 -3 -2 -1 -1 -1 -0 -0 0 0 0 -0 0 0
13 13 13 12 11 10 11 11 9 6 4 5 6 6 7 7 7 7 6 5 3 3 2 1 1 1 0 -0 -1 -1 -2 -2 -2 -2 -1 -1 -1 -1 -0 -0 0 0 0 0 0
12 12 12 12 10 10 10 9 7 5 5 5 6 6 6 6 6 6 6 5 5 4 4 2 1 1 2 1 0 -1 -1 -1 -1 -1 -1 -2 -2 -1 -1 -1 -1 -0 -0 0 0
12 11 11 11 10 10 10 7 5 4 5 6 6 6 6 5 5 5 5 5 5 4 4 3 2 2 2 2 1 -0 -0 -0 -1 -1 -1 -2 -2 -2 -2 -1 -2 -1 -1 -0 -0
11 10 10 10 10 10 9 6 4 5 6 6 5 5 5 5 5 5 4 4 4 3 3 3 3 2 2 2 1 1 0 -0 -0 -0 -1 -2 -3 -3 -2 -2 -2 -2 -2 -1 -1
9 9 9 9 9 9 8 5 5 6 6 6 5 5 5 4 4 4 4 3 3 2 2 2 2 2 2 1 1 1 0 -0 -0 -0 -1 -2 -3 -3 -3 -3 -3 -3 -2 -2 -2
7 7 8 8 9 8 7 6 6 6 7 6 6 5 4 4 3 3 3 3 3 3 2 2 2 2 1 1 0 0 -0 -0 -1 -1 -0 -1 -3 -4 -3 -3 -3 -3 -3 -3 -3
5 6 7 8 8 8 7 6 6 7 7 7 6 6 5 4 3 3 3 3 4 3 2 2 1 1 1 1 0 0 -0 -0 -0 -0 -0 -1 -3 -4 -3 -2 -2 -2 -2 -3 -3
5 5 6 7 7 7 6 6 6 6 7 7 7 6 6 5 5 4 4 3 4 3 3 2 1 1 0 0 0 0 0 -0 -0 -0 -0 -1 -3 -4 -3 -2 -2 -1 -1 -2 -3
4 4 5 6 6 5 5 5 5 5 6 6 6 6 6 6 6 5 5 4 4 3 3 2 1 1 0 0 1 1 1 0 -0 -0 -1 -2 -3 -4 -3 -2 -2 -1 -1 -3 -3
4 3 3 4 4 4 4 4 4 4 5 5 5 5 5 6 6 5 5 5 4 4 3 3 2 1 1 1 1 1 1 0 -0 -1 -2 -3 -4 -3 -3 -2 -2 -2 -3 -3 -4
4 3 3 3 3 2 2 3 3 4 4 4 4 4 5 5 5 5 5 5 4 4 3 3 2 2 1 1 1 1 1 0 -1 -2 -3 -4 -4 -3 -3 -2 -2 -3 -3 -4 -4
4 4 3 3 2 2 2 2 3 3 3 3 3 4 4 4 5 5 5 5 5 4 3 3 2 2 1 1 1 1 1 0 -1 -3 -4 -3 -3 -3 -3 -2 -2 -3 -3 -3 -3